This demonstration page uses our WeatherBlox Daily Observations layout. Learn more.

Left ArrowRight Arrow

39.51506, -84.39828

Hourly Observations for June 13, 2021

Temp ( °F °C ) Dew Point ( °F °C ) Humidity (%) Winds ( mph kmh ) Pressure ( in mb ) Visibility ( mi km ) Precip ( " mm )
12:15 am 00:15 Cloudy 77 25 70 21.1 79 79 N 7 11 29.89 1012 10 16 N/A
12:35 am 00:35 Cloudy 76 24.6 71 21.9 85 85 NNW 5 7 29.89 1012 10 16 N/A
12:55 am 00:55 Cloudy with Nearby Thunderstorms 73 22.5 64 17.9 75 75 W 18 30 29.87 1011 7 11 0.02 0.51
1:15 am 01:15 Partly Cloudy 72 22.1 66 19.1 83 83 NW 9 15 29.86 1011 10 16 N/A
1:35 am 01:35 Partly Cloudy with Light Rain 69 20.7 69 20.4 98 98 NNW 3 6 29.84 1011 10 16 N/A
1:55 am 01:55 Clear 70 21 N/A N/A N N/A 29.83 1010 10 16 N/A
2:15 am 02:15 Clear 70 21.1 69 20.7 98 98 SSW 6 9 29.84 1011 10 16 0.01 0.25
2:35 am 02:35 Clear 68 20 68 20 100 100 W 5 7 29.84 1011 10 16 0.01 0.25
2:55 am 02:55 Clear 68 20 N/A N/A W 5 7 29.84 1011 10 16 0.01 0.25
3:15 am 03:15 Clear 70 21 N/A N/A SSW 3 6 29.84 1011 10 16 N/A
3:35 am 03:35 Clear 70 21 N/A N/A WNW 3 6 29.84 1011 10 16 N/A
3:55 am 03:55 Clear 70 21 N/A N/A WNW 3 6 29.85 1011 7 11 N/A
4:15 am 04:15 Hazy 70 21 N/A N/A N N/A 29.85 1011 7 11 N/A
4:35 am 04:35 Hazy 70 21 N/A N/A N N/A 29.85 1011 7 11 N/A
4:55 am 04:55 Hazy 68 20 N/A N/A N N/A 29.85 1011 4 6 N/A
5:15 am 05:15 Clear 68 20 N/A N/A N N/A 29.86 1011 7 11 N/A
5:35 am 05:35 Hazy 68 20 N/A N/A NE 5 7 29.86 1011 7 11 N/A
5:55 am 05:55 Hazy 68 20 N/A N/A NNE 5 7 29.87 1012 5 8 N/A
6:15 am 06:15 Hazy 68 20 N/A N/A N N/A 29.87 1012 7 11 N/A
6:35 am 06:35 Sunny 68 20 N/A N/A N N/A 29.87 1012 7 11 N/A
6:55 am 06:55 Sunny 68 20 N/A N/A N N/A 29.87 1012 7 11 N/A
7:15 am 07:15 Hazy 70 21 N/A N/A N N/A 29.88 1012 5 8 N/A
7:35 am 07:35 Sunny 70 21 N/A N/A N N/A 29.88 1012 10 16 N/A
7:55 am 07:55 Sunny 73 22.7 71 21.7 94 94 N N/A 29.88 1012 10 16 N/A
8:15 am 08:15 Sunny 74 23.2 72 22 93 93 N N/A 29.88 1012 10 16 N/A
8:35 am 08:35 Sunny 75 23.9 72 22.3 91 91 N N/A 29.89 1012 10 16 N/A
8:55 am 08:55 Partly Cloudy 76 24.5 73 22.6 89 89 N N/A 29.88 1012 10 16 N/A
9:15 am 09:15 Sunny 78 25.6 73 22.9 85 85 N 3 6 29.88 1012 10 16 N/A
9:35 am 09:35 Sunny 79 26.3 71 21.6 75 75 N 7 11 29.89 1012 10 16 N/A
9:55 am 09:55 Sunny 80 26.5 71 21.9 76 76 NNE 3 6 29.89 1012 10 16 N/A
10:15 am 10:15 Sunny 81 27.2 72 22.3 75 75 N 5 7 29.89 1012 10 16 N/A
10:35 am 10:35 Sunny 82 27.9 73 22.6 73 73 N 7 11 29.89 1012 10 16 N/A
10:55 am 10:55 Partly Cloudy 82 28 71 21.9 70 70 ENE 3 6 29.89 1012 10 16 N/A
11:15 am 11:15 Sunny 84 28.8 73 22.6 69 69 NE 5 7 29.88 1012 7 11 N/A
11:35 am 11:35 Partly Cloudy 84 28.9 72 22.4 68 68 N N/A 29.88 1012 7 11 N/A
11:55 am 11:55 Mostly Cloudy 83 28.6 73 23 72 72 NNE 7 11 29.89 1012 10 16 N/A
12:15 pm 12:15 Partly Cloudy 85 29.4 74 23.6 71 71 NNW 7 11 29.89 1012 10 16 N/A
12:35 pm 12:35 Partly Cloudy 85 29.5 73 23 68 68 NNW 6 9 29.89 1012 10 16 N/A
12:55 pm 12:55 Mostly Cloudy 85 29.6 74 23.3 69 69 NNW 8 13 29.88 1012 10 16 N/A
1:15 pm 13:15 Cloudy 85 29.2 74 23.2 70 70 N 7 11 29.88 1012 10 16 N/A
1:35 pm 13:35 Partly Cloudy 86 30.2 73 23 65 65 NNE 6 9 29.88 1012 10 16 N/A
1:55 pm 13:55 Cloudy 85 29.2 73 22.9 69 69 N 7 11 29.88 1012 10 16 N/A
2:15 pm 14:15 Mostly Cloudy with Light Rain 83 28.2 75 23.9 78 78 NNW 6 9 29.88 1012 10 16 N/A
2:35 pm 14:35 Sunny 87 30.5 73 22.5 62 62 N 10 17 29.86 1011 10 16 N/A
2:55 pm 14:55 Sunny 88 30.9 72 22.1 59 59 NNW 8 13 29.86 1011 10 16 N/A
3:15 pm 15:15 Partly Cloudy 88 30.9 71 21.5 57 57 NNW 14 22 29.85 1011 10 16 N/A
3:35 pm 15:35 Partly Cloudy 87 30.5 68 20.2 54 54 N 13 20 29.85 1011 10 16 N/A
3:55 pm 15:55 Sunny 87 30.8 69 20.3 54 54 N 12 19 29.83 1010 10 16 N/A
4:15 pm 16:15 Partly Cloudy 87 30.6 68 20 53 53 N 13 20 29.82 1010 10 16 N/A
4:35 pm 16:35 Sunny 87 30.7 68 19.9 53 53 NNW 12 19 29.81 1009 10 16 N/A
4:55 pm 16:55 Sunny 87 30.5 67 19.4 52 52 N 14 22 29.81 1010 10 16 N/A
5:15 pm 17:15 Sunny 87 30.8 69 20.4 54 54 N 9 15 29.81 1009 10 16 N/A
5:35 pm 17:35 Sunny 86 30.1 66 18.9 51 51 NNW 10 17 29.83 1010 10 16 N/A
5:55 pm 17:55 Mostly Cloudy 86 30 68 20.2 56 56 N 7 11 29.84 1011 10 16 N/A
6:15 pm 18:15 Partly Cloudy 85 29.5 66 18.8 53 53 NNW 8 13 29.84 1011 10 16 N/A
6:35 pm 18:35 Partly Cloudy 86 29.9 65 18.6 51 51 NNW 9 15 29.84 1011 10 16 N/A
6:55 pm 18:55 Partly Cloudy 84 29 66 18.7 54 54 NNW 6 9 29.84 1011 10 16 N/A
7:15 pm 19:15 Mostly Cloudy 86 29.8 66 18.7 51 51 N 7 11 29.84 1011 10 16 N/A
7:35 pm 19:35 Partly Cloudy 84 29.1 64 17.7 50 50 N 9 15 29.84 1011 10 16 N/A
7:55 pm 19:55 Sunny 83 28.3 64 17.5 52 52 N 8 13 29.84 1010 10 16 N/A
8:15 pm 20:15 Sunny 82 27.5 63 17.2 53 53 NNW 8 13 29.85 1011 10 16 N/A
8:35 pm 20:35 Sunny 80 26.6 62 16.8 55 55 NNW 6 9 29.85 1011 10 16 N/A
8:55 pm 20:55 Sunny 79 26 61 16.2 55 55 N 7 11 29.86 1011 10 16 N/A
9:15 pm 21:15 Clear 77 25 61 16.3 59 59 NNW 6 9 29.87 1012 10 16 N/A
9:35 pm 21:35 Clear 76 24.3 60 15.8 59 59 N 6 9 29.87 1012 10 16 N/A
9:55 pm 21:55 Clear 73 23 62 16.4 66 66 N 7 11 29.89 1012 10 16 N/A
10:15 pm 22:15 Clear 73 23 60 15.7 64 64 N 7 11 29.89 1012 10 16 N/A
10:35 pm 22:35 Clear 73 22.9 60 15.3 62 62 N 8 13 29.90 1012 10 16 N/A
10:55 pm 22:55 Clear 73 22.7 59 14.9 62 62 N 6 9 29.91 1013 10 16 N/A
11:15 pm 23:15 Clear 71 21.5 60 15.8 70 70 NNE 5 7 29.91 1013 10 16 N/A
11:35 pm 23:35 Clear 69 20.5 61 16.2 76 76 NE 3 6 29.92 1013 10 16 N/A
11:55 pm 23:55 Clear 71 21.8 59 15.2 66 66 ENE 3 6 29.92 1013 10 16 N/A

Powered by AerisWeather